TimePDT,TemperatureF,Dew PointF,Humidity,Sea Level PressureIn,VisibilityMPH,Wind Direction,Wind SpeedMPH,Gust SpeedMPH,PrecipitationIn,Events,Conditions,WindDirDegrees,DateUTC
12:53 AM,62.1,19.9,20,29.83,10.0,South,12.7,-,N/A,,Clear,190,2013-08-07 07:53:00
1:53 AM,62.1,17.1,18,29.83,10.0,SSW,13.8,-,N/A,,Clear,200,2013-08-07 08:53:00
2:53 AM,53.1,18.0,25,29.87,10.0,South,10.4,-,N/A,,Clear,170,2013-08-07 09:53:00
3:53 AM,50.0,19.9,31,29.87,10.0,SSE,11.5,-,N/A,,Clear,160,2013-08-07 10:53:00
4:53 AM,60.1,21.0,22,29.84,10.0,SSW,12.7,-,N/A,,Clear,210,2013-08-07 11:53:00
5:53 AM,50.0,21.0,32,29.89,10.0,South,12.7,-,N/A,,Clear,170,2013-08-07 12:53:00
6:53 AM,63.0,25.0,24,29.87,10.0,South,13.8,-,N/A,,Clear,190,2013-08-07 13:53:00
7:53 AM,69.1,26.1,20,29.86,10.0,SSW,11.5,-,N/A,,Clear,200,2013-08-07 14:53:00
8:53 AM,75.0,25.0,16,29.85,10.0,South,10.4,-,N/A,,Clear,190,2013-08-07 15:53:00
9:53 AM,79.0,21.0,12,29.85,10.0,Calm,Calm,-,N/A,,Clear,0,2013-08-07 16:53:00
10:53 AM,82.0,21.0,10,29.83,10.0,West,5.8,-,N/A,,Clear,280,2013-08-07 17:53:00
11:53 AM,84.9,21.0,10,29.81,10.0,South,15.0,19.6,N/A,,Clear,170,2013-08-07 18:53:00
12:53 PM,86.0,21.9,10,29.81,10.0,SSE,9.2,24.2,N/A,,Clear,150,2013-08-07 19:53:00
1:53 PM,87.1,21.9,9,29.78,10.0,SW,9.2,21.9,N/A,,Clear,220,2013-08-07 20:53:00
2:53 PM,84.0,24.1,11,29.80,10.0,SW,17.3,26.5,N/A,,Clear,220,2013-08-07 21:53:00
3:53 PM,84.9,26.1,12,29.80,10.0,SSW,13.8,21.9,N/A,,Clear,200,2013-08-07 22:53:00
4:53 PM,86.0,24.1,10,29.75,10.0,SSW,13.8,23.0,N/A,,Clear,210,2013-08-07 23:53:00
5:53 PM,84.9,24.1,11,29.77,10.0,SSW,17.3,25.3,N/A,,Clear,200,2013-08-08 00:53:00
6:53 PM,82.0,25.0,12,29.75,10.0,SSW,12.7,-,N/A,,Partly Cloudy,200,2013-08-08 01:53:00
7:53 PM,77.0,25.0,15,29.77,10.0,SSE,9.2,-,N/A,,Clear,160,2013-08-08 02:53:00
8:53 PM,73.9,25.0,16,29.78,10.0,SSE,12.7,20.7,N/A,,Clear,160,2013-08-08 03:53:00
9:53 PM,73.0,19.0,13,29.79,10.0,SSE,9.2,25.3,N/A,,Clear,150,2013-08-08 04:53:00
10:53 PM,66.0,25.0,21,29.81,10.0,South,9.2,-,N/A,,Clear,190,2013-08-08 05:53:00
11:53 PM,64.0,21.9,20,29.81,10.0,South,10.4,-,N/A,,Clear,190,2013-08-08 06:53:00